RYR14RE EGSS-EIDW

Flight info

Callsign RYR14RE
Flight time 0h 54m
Altitude 34000
Route NUGBO M183 SILVA P86 DIDZA N14 OKSAW DCT BIBPE DCT OKTAD DCT MEDOG DCT KRAGY DCT PEMOB M17 VATRY VATRY4L
Aircraft B738/M-SDE2E3FGHIRWXY/LB1

Departure

Time 2026-05-07 18:40
Airport London Stansted Airport (EGSS)

Arrival

Time 2026-05-07 19:35
Airport Dublin Airport (EIDW)
Time Latitude Longitude Altitude Speed Heading
2026-05-07 17:57 51.89341 0.26033 359 ft 0 kts 223°
2026-05-07 18:25 51.89343 0.26036 351 ft 3 kts 223°
2026-05-07 18:25 51.89362 0.26065 354 ft 4 kts 223°
2026-05-07 18:25 51.89378 0.26088 355 ft 4 kts 231°
2026-05-07 18:26 51.89382 0.26116 359 ft 4 kts 309°
2026-05-07 18:26 51.89366 0.26145 361 ft 2 kts 313°
2026-05-07 18:26 51.89365 0.26147 361 ft 1 kts 313°
2026-05-07 18:29 51.89400 0.26085 354 ft 8 kts 313°
2026-05-07 18:30 51.89424 0.26043 351 ft 8 kts 313°
2026-05-07 18:30 51.89460 0.25981 351 ft 7 kts 313°
2026-05-07 18:30 51.89494 0.25920 351 ft 8 kts 313°
2026-05-07 18:30 51.89529 0.25830 354 ft 12 kts 271°
2026-05-07 18:31 51.89469 0.25721 351 ft 15 kts 225°
2026-05-07 18:31 51.89395 0.25606 356 ft 15 kts 221°
2026-05-07 18:31 51.89316 0.25488 354 ft 19 kts 224°
2026-05-07 18:31 51.89214 0.25334 351 ft 21 kts 223°
2026-05-07 18:32 51.89120 0.25195 351 ft 18 kts 222°
2026-05-07 18:32 51.89039 0.25072 355 ft 13 kts 223°
2026-05-07 18:32 51.88973 0.24975 353 ft 13 kts 223°
2026-05-07 18:32 51.88910 0.24879 355 ft 12 kts 223°
2026-05-07 18:33 51.88848 0.24785 355 ft 12 kts 223°
2026-05-07 18:33 51.88787 0.24694 357 ft 12 kts 223°
2026-05-07 18:33 51.88713 0.24584 354 ft 17 kts 223°
2026-05-07 18:33 51.88617 0.24441 346 ft 20 kts 223°
2026-05-07 18:34 51.88505 0.24272 347 ft 23 kts 224°
2026-05-07 18:34 51.88402 0.24116 346 ft 20 kts 223°
2026-05-07 18:34 51.88300 0.23963 345 ft 20 kts 223°
2026-05-07 18:34 51.88192 0.23801 341 ft 23 kts 223°
2026-05-07 18:35 51.88071 0.23620 337 ft 24 kts 223°
2026-05-07 18:35 51.87949 0.23437 335 ft 24 kts 223°
2026-05-07 18:35 51.87828 0.23255 339 ft 24 kts 223°
2026-05-07 18:35 51.87745 0.23131 337 ft 7 kts 225°
2026-05-07 18:36 51.87727 0.23054 339 ft 8 kts 282°
2026-05-07 18:36 51.87761 0.22982 338 ft 8 kts 313°
2026-05-07 18:36 51.87799 0.22915 339 ft 8 kts 313°
2026-05-07 18:36 51.87842 0.22840 336 ft 11 kts 313°
2026-05-07 18:37 51.87875 0.22783 332 ft 0 kts 313°
2026-05-07 18:38 51.87889 0.22760 332 ft 5 kts 313°
2026-05-07 18:38 51.87914 0.22715 330 ft 6 kts 313°
2026-05-07 18:38 51.87948 0.22680 332 ft 6 kts 355°
2026-05-07 18:39 51.87989 0.22713 330 ft 8 kts 41°
2026-05-07 18:39 51.88049 0.22802 331 ft 17 kts 43°
2026-05-07 18:39 51.88183 0.23003 329 ft 50 kts 43°
2026-05-07 18:39 51.88619 0.23656 337 ft 119 kts 43°
2026-05-07 18:40 51.89370 0.24784 387 ft 171 kts 43°
2026-05-07 18:40 51.90254 0.26142 986 ft 184 kts 49°
2026-05-07 18:40 51.91255 0.27746 1136 ft 222 kts 46°
2026-05-07 18:40 51.92542 0.29444 1406 ft 243 kts 33°
2026-05-07 18:41 51.94133 0.30170 2348 ft 239 kts
2026-05-07 18:41 51.95736 0.29433 2974 ft 243 kts 323°
2026-05-07 18:41 51.96784 0.27370 3758 ft 238 kts 290°
2026-05-07 18:41 51.97159 0.24793 4524 ft 234 kts 278°
2026-05-07 18:42 51.97398 0.22162 4934 ft 237 kts 277°
2026-05-07 18:42 51.97630 0.19529 4982 ft 235 kts 277°
2026-05-07 18:42 51.97870 0.16848 4996 ft 249 kts 277°
2026-05-07 18:42 51.98150 0.13988 4992 ft 258 kts 279°
2026-05-07 18:43 51.98449 0.11117 5006 ft 257 kts 279°
2026-05-07 18:43 51.98755 0.08260 4996 ft 257 kts 279°
2026-05-07 18:43 51.98915 0.05394 4982 ft 255 kts 263°
2026-05-07 18:43 51.98551 0.02595 5025 ft 254 kts 257°
2026-05-07 18:44 51.98163 -0.00234 5457 ft 259 kts 258°
2026-05-07 18:44 51.97778 -0.03150 6147 ft 270 kts 257°
2026-05-07 18:44 51.97388 -0.06133 7067 ft 269 kts 257°
2026-05-07 18:44 51.97002 -0.09101 7967 ft 270 kts 257°
2026-05-07 18:45 51.96612 -0.12097 8784 ft 274 kts 257°
2026-05-07 18:45 51.96214 -0.15146 9601 ft 278 kts 257°
2026-05-07 18:45 51.95811 -0.18230 10379 ft 283 kts 257°
2026-05-07 18:45 51.95386 -0.21471 10617 ft 307 kts 257°
2026-05-07 18:46 51.94925 -0.24973 10901 ft 326 kts 257°
2026-05-07 18:46 51.94446 -0.28614 11519 ft 333 kts 256°
2026-05-07 18:46 51.93961 -0.32307 12276 ft 337 kts 256°
2026-05-07 18:46 51.93470 -0.36032 13042 ft 340 kts 256°
2026-05-07 18:47 51.92972 -0.39798 13790 ft 344 kts 256°
2026-05-07 18:47 51.92467 -0.43613 14448 ft 348 kts 256°
2026-05-07 18:47 51.91956 -0.47452 15153 ft 350 kts 256°
2026-05-07 18:47 51.91442 -0.51316 15845 ft 352 kts 256°
2026-05-07 18:48 51.90921 -0.55212 16524 ft 355 kts 256°
2026-05-07 18:48 51.90394 -0.59141 17196 ft 358 kts 256°
2026-05-07 18:48 51.89863 -0.63094 17874 ft 362 kts 257°
2026-05-07 18:48 51.89324 -0.67088 18490 ft 365 kts 257°
2026-05-07 18:49 51.88779 -0.71126 19068 ft 367 kts 257°
2026-05-07 18:49 51.88232 -0.75158 19658 ft 369 kts 257°
2026-05-07 18:49 51.87679 -0.79233 20232 ft 372 kts 257°
2026-05-07 18:49 51.87120 -0.83334 20799 ft 374 kts 257°
2026-05-07 18:50 51.86557 -0.87463 21355 ft 377 kts 257°
2026-05-07 18:50 51.85988 -0.91613 21895 ft 380 kts 257°
2026-05-07 18:50 51.85387 -0.95789 22434 ft 382 kts 253°
2026-05-07 18:50 51.84382 -0.99768 22972 ft 384 kts 242°
2026-05-07 18:51 51.82951 -1.03425 23483 ft 387 kts 233°
2026-05-07 18:51 51.81143 -1.06667 23922 ft 390 kts 226°
2026-05-07 18:51 51.79447 -1.10078 24311 ft 392 kts 239°
2026-05-07 18:51 51.78298 -1.14099 24723 ft 395 kts 251°
2026-05-07 18:52 51.77625 -1.18403 25152 ft 398 kts 260°
2026-05-07 18:52 51.77246 -1.22837 25574 ft 400 kts 261°
2026-05-07 18:52 51.76878 -1.27304 25970 ft 402 kts 261°
2026-05-07 18:52 51.76502 -1.31788 26368 ft 405 kts 261°
2026-05-07 18:53 51.76114 -1.36299 26760 ft 407 kts 261°
2026-05-07 18:53 51.75715 -1.40832 27146 ft 409 kts 261°
2026-05-07 18:53 51.75308 -1.45380 27527 ft 411 kts 261°
2026-05-07 18:53 51.74894 -1.49958 27838 ft 415 kts 261°
2026-05-07 18:54 51.74473 -1.54577 28168 ft 417 kts 260°
2026-05-07 18:54 51.74050 -1.59209 28607 ft 417 kts 260°
2026-05-07 18:54 51.73626 -1.63820 29164 ft 414 kts 260°
2026-05-07 18:54 51.73205 -1.68402 29726 ft 411 kts 260°
2026-05-07 18:55 51.72784 -1.72954 30187 ft 410 kts 260°
2026-05-07 18:55 51.72363 -1.77484 30721 ft 404 kts 260°
2026-05-07 18:55 51.71983 -1.81887 31606 ft 391 kts 264°
2026-05-07 18:55 51.71955 -1.86266 32013 ft 392 kts 272°
2026-05-07 18:56 51.72356 -1.90653 32156 ft 400 kts 281°
2026-05-07 18:56 51.73011 -1.95027 32363 ft 403 kts 281°
2026-05-07 18:56 51.73692 -1.99435 32567 ft 407 kts 282°
2026-05-07 18:56 51.74374 -2.03873 32839 ft 408 kts 281°
2026-05-07 18:57 51.75048 -2.08316 33128 ft 408 kts 281°
2026-05-07 18:57 51.75714 -2.12777 33396 ft 409 kts 281°
2026-05-07 18:57 51.76376 -2.17253 33636 ft 411 kts 281°
2026-05-07 18:57 51.77036 -2.21753 33870 ft 413 kts 281°
2026-05-07 18:58 51.77696 -2.26275 34028 ft 416 kts 281°
2026-05-07 18:58 51.79026 -2.35429 34033 ft 418 kts 281°
2026-05-07 18:59 51.80335 -2.44470 34021 ft 410 kts 280°
2026-05-07 18:59 51.81625 -2.53450 34029 ft 411 kts 280°
2026-05-07 19:00 51.82878 -2.62470 34023 ft 412 kts 279°
2026-05-07 19:00 51.84099 -2.71549 34028 ft 414 kts 279°
2026-05-07 19:01 51.85320 -2.80661 34024 ft 415 kts 279°
2026-05-07 19:01 51.86541 -2.89796 34045 ft 416 kts 279°
2026-05-07 19:02 51.87761 -2.98973 34039 ft 418 kts 279°
2026-05-07 19:02 51.88976 -3.08161 34049 ft 418 kts 279°
2026-05-07 19:03 51.90187 -3.17387 34044 ft 419 kts 279°
2026-05-07 19:03 51.91392 -3.26630 34029 ft 420 kts 279°
2026-05-07 19:04 51.92591 -3.35879 34025 ft 420 kts 279°
2026-05-07 19:04 51.93784 -3.45135 34028 ft 419 kts 278°
2026-05-07 19:05 51.94969 -3.54393 34016 ft 419 kts 278°
2026-05-07 19:05 51.96143 -3.63639 34018 ft 419 kts 278°
2026-05-07 19:06 51.97309 -3.72893 34010 ft 419 kts 278°
2026-05-07 19:06 51.98472 -3.82183 33693 ft 422 kts 278°
2026-05-07 19:06 51.99051 -3.86825 33369 ft 418 kts 278°
2026-05-07 19:07 51.99622 -3.91420 33002 ft 413 kts 278°
2026-05-07 19:07 52.00187 -3.95966 32576 ft 409 kts 278°
2026-05-07 19:07 52.00743 -4.00475 32181 ft 406 kts 278°
2026-05-07 19:07 52.01294 -4.04950 31801 ft 403 kts 278°
2026-05-07 19:08 52.01839 -4.09398 31416 ft 401 kts 278°
2026-05-07 19:08 52.02380 -4.13825 31038 ft 398 kts 278°
2026-05-07 19:08 52.02915 -4.18227 30667 ft 397 kts 278°
2026-05-07 19:08 52.03446 -4.22601 30304 ft 395 kts 278°
2026-05-07 19:09 52.03975 -4.26976 29909 ft 393 kts 278°
2026-05-07 19:09 52.04499 -4.31323 29485 ft 392 kts 278°
2026-05-07 19:09 52.04844 -4.34192 29233 ft 390 kts 278°
2026-05-07 19:09 52.05370 -4.38572 28828 ft 388 kts 278°
2026-05-07 19:10 52.05883 -4.42869 28459 ft 387 kts 278°
2026-05-07 19:10 52.06393 -4.47151 28050 ft 385 kts 278°
2026-05-07 19:10 52.06900 -4.51418 27672 ft 384 kts 278°
2026-05-07 19:10 52.07403 -4.55666 27280 ft 382 kts 278°
2026-05-07 19:11 52.07902 -4.59896 26898 ft 380 kts 278°
2026-05-07 19:11 52.08397 -4.64112 26513 ft 378 kts 278°
2026-05-07 19:11 52.08888 -4.68301 26139 ft 376 kts 278°
2026-05-07 19:11 52.09376 -4.72471 25762 ft 374 kts 278°
2026-05-07 19:12 52.10020 -4.76551 25415 ft 374 kts 289°
2026-05-07 19:12 52.11245 -4.80204 25134 ft 373 kts 303°
2026-05-07 19:12 52.12923 -4.83379 24933 ft 368 kts 313°
2026-05-07 19:12 52.14775 -4.86232 24609 ft 365 kts 314°
2026-05-07 19:13 52.16629 -4.89057 24197 ft 365 kts 314°
2026-05-07 19:13 52.18480 -4.91886 23814 ft 364 kts 313°
2026-05-07 19:13 52.20315 -4.94707 23491 ft 361 kts 313°
2026-05-07 19:13 52.22126 -4.97506 23124 ft 357 kts 313°
2026-05-07 19:14 52.23918 -5.00287 22724 ft 355 kts 313°
2026-05-07 19:14 52.25695 -5.03056 22317 ft 353 kts 313°
2026-05-07 19:14 52.27467 -5.05824 21920 ft 351 kts 313°
2026-05-07 19:14 52.29225 -5.08575 21542 ft 349 kts 313°
2026-05-07 19:15 52.30971 -5.11310 21169 ft 347 kts 313°
2026-05-07 19:15 52.32705 -5.14031 20795 ft 345 kts 313°
2026-05-07 19:15 52.34428 -5.16737 20426 ft 343 kts 313°
2026-05-07 19:15 52.36141 -5.19431 20065 ft 341 kts 313°
2026-05-07 19:16 52.37846 -5.22114 19710 ft 339 kts 313°
2026-05-07 19:16 52.39542 -5.24787 19356 ft 337 kts 313°
2026-05-07 19:16 52.41226 -5.27444 19032 ft 335 kts 313°
2026-05-07 19:16 52.42898 -5.30085 18722 ft 333 kts 313°
2026-05-07 19:17 52.44558 -5.32710 18386 ft 331 kts 313°
2026-05-07 19:17 52.46210 -5.35325 18004 ft 329 kts 313°
2026-05-07 19:17 52.47850 -5.37925 17642 ft 327 kts 313°
2026-05-07 19:17 52.49484 -5.40517 17268 ft 326 kts 313°
2026-05-07 19:18 52.51108 -5.43094 16906 ft 324 kts 313°
2026-05-07 19:18 52.52723 -5.45661 16546 ft 322 kts 313°
2026-05-07 19:18 52.54329 -5.48217 16193 ft 321 kts 313°
2026-05-07 19:18 52.56122 -5.50382 15793 ft 325 kts 334°
2026-05-07 19:19 52.58264 -5.51568 15494 ft 324 kts 341°
2026-05-07 19:19 52.60431 -5.52633 15006 ft 327 kts 341°
2026-05-07 19:19 52.62610 -5.53708 14476 ft 326 kts 341°
2026-05-07 19:19 52.64785 -5.54798 13873 ft 326 kts 340°
2026-05-07 19:20 52.66951 -5.55903 13215 ft 325 kts 340°
2026-05-07 19:20 52.69106 -5.57010 12551 ft 324 kts 340°
2026-05-07 19:20 52.71254 -5.58119 11906 ft 323 kts 339°
2026-05-07 19:20 52.73391 -5.59228 11264 ft 321 kts 341°
2026-05-07 19:21 52.75518 -5.60334 10645 ft 319 kts 340°
2026-05-07 19:21 52.77626 -5.61429 10034 ft 317 kts 340°
2026-05-07 19:21 52.79720 -5.62518 9375 ft 315 kts 340°
2026-05-07 19:21 52.81804 -5.63603 8708 ft 313 kts 340°
2026-05-07 19:22 52.83876 -5.64685 8102 ft 310 kts 341°
2026-05-07 19:22 52.85897 -5.65740 7798 ft 298 kts 340°
2026-05-07 19:22 52.87837 -5.66754 7528 ft 287 kts 340°
2026-05-07 19:22 52.89709 -5.67734 7259 ft 277 kts 341°
2026-05-07 19:23 52.91526 -5.68684 7014 ft 273 kts 340°
2026-05-07 19:23 52.93328 -5.69631 6767 ft 270 kts 341°
2026-05-07 19:23 52.95124 -5.70575 6523 ft 270 kts 340°
2026-05-07 19:23 52.96918 -5.71516 6258 ft 271 kts 339°
2026-05-07 19:24 52.98714 -5.72459 6006 ft 270 kts 339°
2026-05-07 19:24 53.00505 -5.73401 5752 ft 270 kts 340°
2026-05-07 19:24 53.02294 -5.74344 5482 ft 270 kts 339°
2026-05-07 19:24 53.04084 -5.75289 5226 ft 270 kts 340°
2026-05-07 19:25 53.05874 -5.76234 4978 ft 270 kts 340°
2026-05-07 19:25 53.07658 -5.77177 4753 ft 268 kts 340°
2026-05-07 19:25 53.09416 -5.78104 4606 ft 263 kts 339°
2026-05-07 19:25 53.11152 -5.79022 4441 ft 261 kts 340°
2026-05-07 19:26 53.12879 -5.79936 4292 ft 260 kts 339°
2026-05-07 19:26 53.14605 -5.80850 4139 ft 260 kts 339°
2026-05-07 19:26 53.16320 -5.81756 3978 ft 256 kts 339°
2026-05-07 19:26 53.18001 -5.82648 3810 ft 253 kts 338°
2026-05-07 19:27 53.19672 -5.83540 3648 ft 250 kts 339°
2026-05-07 19:27 53.21318 -5.84414 3486 ft 247 kts 338°
2026-05-07 19:27 53.22945 -5.85278 3332 ft 245 kts 338°
2026-05-07 19:27 53.24572 -5.86145 3190 ft 246 kts 339°
2026-05-07 19:28 53.26214 -5.87020 3064 ft 250 kts 339°
2026-05-07 19:28 53.27858 -5.87896 3006 ft 245 kts 338°
2026-05-07 19:28 53.29455 -5.88745 2996 ft 238 kts 338°
2026-05-07 19:28 53.31025 -5.89586 3000 ft 236 kts 338°
2026-05-07 19:29 53.32581 -5.90418 3008 ft 234 kts 339°
2026-05-07 19:29 53.34125 -5.91244 2997 ft 232 kts 339°
2026-05-07 19:29 53.35662 -5.92066 2994 ft 233 kts 338°
2026-05-07 19:29 53.37211 -5.92898 3011 ft 236 kts 339°
2026-05-07 19:30 53.38760 -5.93733 3011 ft 229 kts 337°
2026-05-07 19:30 53.39993 -5.95142 2991 ft 207 kts 299°
2026-05-07 19:30 53.40395 -5.97372 3006 ft 197 kts 276°
2026-05-07 19:30 53.40624 -5.99553 2982 ft 181 kts 275°
2026-05-07 19:31 53.40781 -6.01572 2936 ft 173 kts 272°
2026-05-07 19:31 53.40896 -6.03590 2755 ft 174 kts 272°
2026-05-07 19:31 53.41002 -6.05582 2527 ft 169 kts 271°
2026-05-07 19:31 53.41103 -6.07508 2316 ft 163 kts 270°
2026-05-07 19:32 53.41199 -6.09372 2072 ft 158 kts 270°
2026-05-07 19:32 53.41294 -6.11184 1867 ft 155 kts 269°
2026-05-07 19:32 53.41387 -6.12973 1665 ft 153 kts 270°
2026-05-07 19:32 53.41480 -6.14711 1446 ft 145 kts 269°
2026-05-07 19:33 53.41566 -6.16339 1269 ft 139 kts 268°
2026-05-07 19:33 53.41651 -6.17976 1078 ft 144 kts 268°
2026-05-07 19:33 53.41737 -6.19680 847 ft 148 kts 271°
2026-05-07 19:33 53.41823 -6.21411 632 ft 149 kts 273°
2026-05-07 19:34 53.41923 -6.23118 435 ft 146 kts 274°
2026-05-07 19:34 53.42009 -6.24756 266 ft 138 kts 275°
2026-05-07 19:34 53.42094 -6.26297 213 ft 118 kts 275°
2026-05-07 19:34 53.42148 -6.27303 212 ft 54 kts 275°
2026-05-07 19:35 53.42199 -6.27823 213 ft 39 kts 291°
2026-05-07 19:35 53.42276 -6.28066 213 ft 19 kts 300°
2026-05-07 19:35 53.42363 -6.28051 212 ft 19 kts 89°
2026-05-07 19:35 53.42358 -6.27935 210 ft 11 kts 94°
2026-05-07 19:36 53.42348 -6.27785 212 ft 15 kts 97°
2026-05-07 19:36 53.42337 -6.27599 210 ft 18 kts 95°
2026-05-07 19:36 53.42331 -6.27465 210 ft 12 kts 94°
2026-05-07 19:36 53.42323 -6.27328 210 ft 9 kts 96°